Location: Unspecified
(44.7399°N, 0.0000°E)
Time: 00:40:15
(UTC+00:00)

SPIRIT III Cover - Visible Passes

Search period start: 05 April 2026 00:00
Search period end: 15 April 2026 00:00
Orbit: 838 x 963 km, 99.1° (Epoch: 29 March)

Date Brightness Start Highest point End Pass type
(mag) Time Alt. Az. Time Alt. Az. Time Alt. Az.
5 Apr 10.0 01:14:29 10° NE 01:18:57 26° E 01:18:57 26° E visible
5 Apr 8.6 02:55:35 10° N 03:01:29 53° WNW 03:02:01 52° W visible
5 Apr 10.5 04:40:58 10° NW 04:41:49 10° NW 04:42:39 10° WNW visible
6 Apr 9.9 01:17:06 10° NE 01:21:47 28° E 01:21:47 28° E visible
6 Apr 8.7 02:58:16 10° N 03:04:08 51° WNW 03:04:50 49° W visible
7 Apr 9.9 01:19:42 10° NE 01:24:36 29° E 01:24:36 29° E visible
7 Apr 8.7 03:00:58 10° N 03:06:48 49° WNW 03:07:40 46° W visible
8 Apr 9.8 01:22:20 10° NE 01:27:26 31° E 01:27:26 31° E visible
8 Apr 8.8 03:03:40 10° N 03:09:27 47° WNW 03:10:29 43° W visible
9 Apr 9.7 01:24:56 10° NNE 01:30:15 32° E 01:30:15 32° E visible
9 Apr 8.9 03:06:21 10° N 03:12:06 45° WNW 03:13:19 40° W visible
10 Apr 9.6 01:27:34 10° NNE 01:33:01 34° E 01:33:04 34° E visible
10 Apr 8.9 03:09:04 10° N 03:14:45 43° WNW 03:16:08 37° W visible
11 Apr 9.5 01:30:12 10° NNE 01:35:43 35° E 01:35:53 35° E visible
11 Apr 9.0 03:11:46 10° N 03:17:24 41° WNW 03:18:57 35° W visible
12 Apr 9.4 01:32:50 10° NNE 01:38:24 37° E 01:38:42 37° ESE visible
12 Apr 9.1 03:14:28 10° N 03:20:03 39° WNW 03:21:46 32° W visible
13 Apr 9.3 01:35:28 10° NNE 01:41:06 38° E 01:41:31 38° ESE visible
13 Apr 9.1 03:17:11 10° N 03:22:42 38° WNW 03:24:34 30° W visible
14 Apr 9.3 01:38:06 10° NNE 01:43:47 40° E 01:44:19 39° ESE visible
14 Apr 9.2 03:19:53 10° N 03:25:20 36° WNW 03:27:23 28° WSW visible
